{"data":{"norad_id":33409,"epoch":"2026-05-25T05:13:01.185312Z","epoch_age_seconds":52122,"freshness":"FRESH","line1":"1 33409U 08053B   26145.21737483  .00000735  00000+0  57331-4 0  9995","line2":"2 33409  97.8574 164.7296 0020613 116.3267 244.0079 15.04221419959293","mean_motion":15.04221419,"eccentricity":0.0020613,"inclination_deg":97.8574,"raan_deg":164.7296,"arg_perigee_deg":116.3267,"mean_anomaly_deg":244.0079,"bstar":5.7331e-5,"rev_number":95929,"period_min":95.730587386351,"perigee_km":539.6076513569,"apogee_km":568.18565329197,"semimajor_km":6932.0336523244,"source":"CELESTRAK","updated_at":"2026-05-25T13:37:55.151750Z"}}